TIANTONG-1 1

Last updated on Oct. 31, 2020, 5:53 a.m. UTC

1 41725U 16048A   20304.81381006 -.00000318  00000-0  00000+0 0  9996
2 41725   2.8126 337.1517 0003243 315.0356 141.7494  1.00276499 15657
UTC
Height (km)
Latitude
Longitude
Inclination
Orbital Period
UTC large
Height (km)
Speed (km/s)
/
Latitude / Longitude
Inclination (degrees)
Orbital Period (minutes)
Azimuth
Elevation
Range (km)
Doppler Factor
iOS Compass Heading
iOS Angle

Next 30 passes for location: Hong Kong

Rise time Rise Azimuth (degrees) Set time Set Azimuth (degrees) Duration Max altitude (degrees)

No matching passes for this satellites